Terug naar catalogus

STARLINK-31759

ActiefCommunicatieVLEO
NORAD 59740·PAYLOAD·🇺🇸 United States

Gelanceerd May 13, 2024 vanaf Cape Canaveral Space Force Station

Loading…

Volgende Passages (komende 24 uur)

TLE

VersSource: CelesTrak SupGP

Epoch: Sep 14, 2026, 21:05 UTC

1 59740C 24090L   26257.87895833  .00014277  00000+0  51711-3 0  2578
2 59740  43.0009 195.3742 0001355 255.7119 349.7750 15.27572216    12

Volg STARLINK-31759 in realtime met AllMySat

Download on the App Store